Home   Weather   Gorzów Wielkopolski   Past weeks

Flag for Poland Past Weather in Gorzów Wielkopolski, Poland — Yesterday and Last 2 Weeks

Now
54 °F

Overcast.


Feels Like: 54 °F
Forecast: 49 / 69 °F
Wind: 1 mph from Southeast

Location: Gorzow Wlkp

Current Time: Sep 26, 2016 at 12:31:48 AM

Latest Report: Sep 25, 2016 at 11:00 PM


Visibility: 25 mi

Pressure: 30.19 "Hg

Humidity: 68%

Dew Point: 44 °F

Location of Gorzów WielkopolskiLocation

Past Weather in Gorzów Wielkopolski — Graph

°F

Gorzów Wielkopolski Temperature Yesterday

Maximum temperature yesterday: 70 °F (at 4:00 PM)
Minimum temperature yesterday: 46 °F (at 7:00 AM)
Average temperature yesterday: 57 °F

High & Low Weather Summary for the Past Weeks

 TemperatureHumidityPressure
High87 °F (Sep 12, 4:00 PM)95% (Sep 12, 5:00 AM)30.29 "Hg (Sep 12, 5:00 AM)
Low40 °F (Sep 22, 7:00 AM)32% (Sep 14, 2:00 PM)29.86 "Hg (Sep 16, 7:00 PM)
Average63 °F64%30.09 "Hg
* Reported Sep 10 11:00 PM — Sep 25 11:00 PM, Gorzów Wielkopolski, Weather by CustomWeather, © 2016

Note: Actual official high and low records may vary slightly from our data, if they occured in-between our weather recording intervals... More about our weather records

Advertising

Gorzów Wielkopolski Weather History for the Previous 24 Hours

Scroll right to see more
 ConditionsComfort  
Time TempWeatherWind HumidityBarometerVisibility
11:00 PM
Sun, Sep 25
54 °FOvercast.1 mph68%30.19 "Hg25 mi
10:00 PM56 °FOvercast.2 mph62%30.19 "Hg25 mi
9:00 PM58 °FOvercast.2 mph59%30.19 "Hg25 mi
8:00 PM60 °FOvercast.2 mph56%30.18 "Hg25 mi
7:00 PM63 °FOvercast.2 mph49%30.17 "Hg25 mi
6:00 PM68 °FOvercast.2 mph42%30.16 "Hg25 mi
5:00 PM69 °FOvercast.3 mph37%30.16 "Hg25 mi
4:00 PM70 °FOvercast.3 mph39%30.17 "Hg25 mi
3:00 PM69 °FOvercast.3 mph40%30.18 "Hg25 mi
2:00 PM68 °FOvercast.3 mph44%30.20 "Hg25 mi
1:00 PM67 °FOvercast.2 mph47%30.22 "Hg25 mi
12:00 PM63 °FOvercast.2 mph57%30.23 "Hg19 mi
11:00 AM59 °FOvercast.1 mph65%30.24 "Hg19 mi
10:00 AM57 °FOvercast.1 mph67%30.26 "Hg16 mi
9:00 AM52 °FOvercast.2 mph78%30.26 "Hg12 mi
8:00 AM46 °FFog.1 mph88%30.26 "Hg9 mi
7:00 AM46 °FFog.2 mph89%30.26 "Hg12 mi
6:00 AM46 °FPassing clouds.1 mph89%30.26 "Hg12 mi
5:00 AM47 °FClear.1 mph87%30.26 "Hg16 mi
4:00 AM47 °FPassing clouds.1 mph88%30.27 "Hg16 mi
3:00 AM47 °FPassing clouds.1 mph87%30.27 "Hg16 mi
2:00 AM49 °FPassing clouds.1 mph85%30.27 "Hg19 mi
1:00 AM48 °FClear.No wind85%30.27 "Hg19 mi
12:00 AM50 °FClear.1 mph78%30.27 "Hg19 mi
Weather by CustomWeather, © 2016

See weather overviewHow to use our weather pages